Year,Month,Day,Hour,Minute,Value (Times are PST for temperature in C)
2011,07,30,00,00,15.60
2011,07,30,00,01,15.60
2011,07,30,00,02,15.60
2011,07,30,00,03,15.60
2011,07,30,00,04,15.50
2011,07,30,00,05,15.50
2011,07,30,00,06,15.40
2011,07,30,00,07,15.40
2011,07,30,00,08,15.40
2011,07,30,00,09,15.40
2011,07,30,00,10,15.40
2011,07,30,00,11,15.40
2011,07,30,00,12,15.30
2011,07,30,00,13,15.30
2011,07,30,00,14,15.30
2011,07,30,00,15,15.30
2011,07,30,00,16,15.30
2011,07,30,00,17,15.30
2011,07,30,00,18,15.30
2011,07,30,00,19,15.30
2011,07,30,00,20,15.30
2011,07,30,00,21,15.20
2011,07,30,00,22,15.20
2011,07,30,00,23,15.20
2011,07,30,00,24,15.20
2011,07,30,00,25,15.20
2011,07,30,00,26,15.20
2011,07,30,00,27,15.20
2011,07,30,00,28,15.20
2011,07,30,00,29,15.20
2011,07,30,00,30,15.20
2011,07,30,00,31,15.10
2011,07,30,00,32,15.10
2011,07,30,00,33,15.10
2011,07,30,00,34,15.10
2011,07,30,00,35,15.10
2011,07,30,00,36,15.10
2011,07,30,00,37,15.00
2011,07,30,00,38,15.00
2011,07,30,00,39,15.00
2011,07,30,00,40,15.00
2011,07,30,00,41,15.00
2011,07,30,00,42,15.00
2011,07,30,00,43,15.00
2011,07,30,00,44,15.00
2011,07,30,00,45,15.00
2011,07,30,00,46,15.00
2011,07,30,00,47,15.00
2011,07,30,00,48,15.00
2011,07,30,00,49,15.00
2011,07,30,00,50,15.00
2011,07,30,00,51,15.00
2011,07,30,00,52,15.00
2011,07,30,00,53,15.00
2011,07,30,00,54,15.00
2011,07,30,00,55,15.00
2011,07,30,00,56,15.00
2011,07,30,00,57,15.00
2011,07,30,00,58,15.00
2011,07,30,00,59,15.00
2011,07,30,01,00,14.90
2011,07,30,01,01,14.90
2011,07,30,01,02,14.90
2011,07,30,01,03,14.90
2011,07,30,01,04,14.90
2011,07,30,01,05,14.80
2011,07,30,01,06,14.80
2011,07,30,01,07,14.80
2011,07,30,01,08,14.80
2011,07,30,01,09,14.80
2011,07,30,01,10,14.80
2011,07,30,01,11,14.80
2011,07,30,01,12,14.80
2011,07,30,01,13,14.80
2011,07,30,01,14,14.80
2011,07,30,01,15,14.80
2011,07,30,01,16,14.80
2011,07,30,01,17,14.70
2011,07,30,01,18,14.70
2011,07,30,01,19,14.70
2011,07,30,01,20,14.70
2011,07,30,01,21,14.70
2011,07,30,01,22,14.70
2011,07,30,01,23,14.70
2011,07,30,01,24,14.70
2011,07,30,01,25,14.60
2011,07,30,01,26,14.60
2011,07,30,01,27,14.60
2011,07,30,01,28,14.60
2011,07,30,01,29,14.60
2011,07,30,01,30,14.60
2011,07,30,01,31,14.60
2011,07,30,01,32,14.60
2011,07,30,01,33,14.60
2011,07,30,01,34,14.60
2011,07,30,01,35,14.60
2011,07,30,01,36,14.60
2011,07,30,01,37,14.60
2011,07,30,01,38,14.50
2011,07,30,01,39,14.50
2011,07,30,01,40,14.50
2011,07,30,01,41,14.50
2011,07,30,01,42,14.50
2011,07,30,01,43,14.40
2011,07,30,01,44,14.40
2011,07,30,01,45,14.40
2011,07,30,01,46,14.40
2011,07,30,01,47,14.40
2011,07,30,01,48,14.40
2011,07,30,01,49,14.40
2011,07,30,01,50,14.40
2011,07,30,01,51,14.40
2011,07,30,01,52,14.40
2011,07,30,01,53,14.30
2011,07,30,01,54,14.30
2011,07,30,01,55,14.30
2011,07,30,01,56,14.30
2011,07,30,01,57,14.30
2011,07,30,01,58,14.30
2011,07,30,01,59,14.30
2011,07,30,02,00,14.30
2011,07,30,02,01,14.30
2011,07,30,02,02,14.20
2011,07,30,02,03,14.20
2011,07,30,02,04,14.20
2011,07,30,02,05,14.20
2011,07,30,02,06,14.20
2011,07,30,02,07,14.20
2011,07,30,02,08,14.20
2011,07,30,02,09,14.20
2011,07,30,02,10,14.20
2011,07,30,02,11,14.10
2011,07,30,02,12,14.10
2011,07,30,02,13,14.10
2011,07,30,02,14,14.10
2011,07,30,02,15,14.10
2011,07,30,02,16,14.10
2011,07,30,02,17,14.00
2011,07,30,02,18,14.00
2011,07,30,02,19,14.00
2011,07,30,02,20,14.00
2011,07,30,02,21,13.90
2011,07,30,02,22,13.90
2011,07,30,02,23,13.90
2011,07,30,02,24,13.90
2011,07,30,02,25,13.90
2011,07,30,02,26,13.90
2011,07,30,02,27,13.90
2011,07,30,02,28,13.90
2011,07,30,02,29,13.90
2011,07,30,02,30,13.90
2011,07,30,02,31,13.90
2011,07,30,02,32,13.90
2011,07,30,02,33,13.90
2011,07,30,02,34,13.90
2011,07,30,02,35,13.90
2011,07,30,02,36,13.90
2011,07,30,02,37,13.90
2011,07,30,02,38,13.90
2011,07,30,02,39,13.90
2011,07,30,02,40,13.90
2011,07,30,02,41,13.90
2011,07,30,02,42,13.90
2011,07,30,02,43,13.90
2011,07,30,02,44,13.90
2011,07,30,02,45,13.90
2011,07,30,02,46,13.80
2011,07,30,02,47,13.80
2011,07,30,02,48,13.80
2011,07,30,02,49,13.80
2011,07,30,02,50,13.80
2011,07,30,02,51,13.80
2011,07,30,02,52,13.80
2011,07,30,02,53,13.80
2011,07,30,02,54,13.80
2011,07,30,02,55,13.80
2011,07,30,02,56,13.80
2011,07,30,02,57,13.80
2011,07,30,02,58,13.80
2011,07,30,02,59,13.70
2011,07,30,03,00,13.70
2011,07,30,03,01,13.70
2011,07,30,03,02,13.70
2011,07,30,03,03,13.70
2011,07,30,03,04,13.70
2011,07,30,03,05,13.70
2011,07,30,03,06,13.70
2011,07,30,03,07,13.70
2011,07,30,03,08,13.70
2011,07,30,03,09,13.70
2011,07,30,03,10,13.70
2011,07,30,03,11,13.60
2011,07,30,03,12,13.60
2011,07,30,03,13,13.60
2011,07,30,03,14,13.60
2011,07,30,03,15,13.60
2011,07,30,03,16,13.50
2011,07,30,03,17,13.50
2011,07,30,03,18,13.50
2011,07,30,03,19,13.50
2011,07,30,03,20,13.50
2011,07,30,03,21,13.40
2011,07,30,03,22,13.40
2011,07,30,03,23,13.40
2011,07,30,03,24,13.40
2011,07,30,03,25,13.40
2011,07,30,03,26,13.40
2011,07,30,03,27,13.40
2011,07,30,03,28,13.40
2011,07,30,03,29,13.40
2011,07,30,03,30,13.40
2011,07,30,03,31,13.40
2011,07,30,03,32,13.30
2011,07,30,03,33,13.30
2011,07,30,03,34,13.30
2011,07,30,03,35,13.30
2011,07,30,03,36,13.30
2011,07,30,03,37,13.30
2011,07,30,03,38,13.30
2011,07,30,03,39,13.30
2011,07,30,03,40,13.30
2011,07,30,03,41,13.30
2011,07,30,03,42,13.30
2011,07,30,03,43,13.20
2011,07,30,03,44,13.20
2011,07,30,03,45,13.20
2011,07,30,03,46,13.20
2011,07,30,03,47,13.20
2011,07,30,03,48,13.20
2011,07,30,03,49,13.20
2011,07,30,03,50,13.20
2011,07,30,03,51,13.20
2011,07,30,03,52,13.20
2011,07,30,03,53,13.20
2011,07,30,03,54,13.20
2011,07,30,03,55,13.20
2011,07,30,03,56,13.20
2011,07,30,03,57,13.20
2011,07,30,03,58,13.20
2011,07,30,03,59,13.20
2011,07,30,04,00,13.20
2011,07,30,04,01,13.20
2011,07,30,04,02,13.10
2011,07,30,04,03,13.10
2011,07,30,04,04,13.10
2011,07,30,04,05,13.10
2011,07,30,04,06,13.10
2011,07,30,04,07,13.10
2011,07,30,04,08,13.10
2011,07,30,04,09,13.10
2011,07,30,04,10,13.10
2011,07,30,04,11,13.10
2011,07,30,04,12,13.10
2011,07,30,04,13,13.10
2011,07,30,04,14,13.10
2011,07,30,04,15,13.10
2011,07,30,04,16,13.10
2011,07,30,04,17,13.10
2011,07,30,04,18,13.00
2011,07,30,04,19,13.00
2011,07,30,04,20,13.00
2011,07,30,04,21,13.10
2011,07,30,04,22,13.10
2011,07,30,04,23,13.10
2011,07,30,04,24,13.10
2011,07,30,04,25,13.10
2011,07,30,04,26,13.10
2011,07,30,04,27,13.10
2011,07,30,04,28,13.10
2011,07,30,04,29,13.00
2011,07,30,04,30,13.00
2011,07,30,04,31,13.00
2011,07,30,04,32,13.00
2011,07,30,04,33,13.00
2011,07,30,04,34,13.00
2011,07,30,04,35,13.00
2011,07,30,04,36,13.00
2011,07,30,04,37,13.00
2011,07,30,04,38,13.00
2011,07,30,04,39,13.10
2011,07,30,04,40,13.10
2011,07,30,04,41,13.10
2011,07,30,04,42,13.10
2011,07,30,04,43,13.10
2011,07,30,04,44,13.10
2011,07,30,04,45,13.10
2011,07,30,04,46,13.10
2011,07,30,04,47,13.10
2011,07,30,04,48,13.10
2011,07,30,04,49,13.10
2011,07,30,04,50,13.10
2011,07,30,04,51,13.10
2011,07,30,04,52,13.10
2011,07,30,04,53,13.10
2011,07,30,04,54,13.10
2011,07,30,04,55,13.10
2011,07,30,04,56,13.10
2011,07,30,04,57,13.10
2011,07,30,04,58,13.10
2011,07,30,04,59,13.10
2011,07,30,05,00,13.10
2011,07,30,05,01,13.10
2011,07,30,05,02,13.10
2011,07,30,05,03,13.10
2011,07,30,05,04,13.10
2011,07,30,05,05,13.10
2011,07,30,05,06,13.10
2011,07,30,05,07,13.10
2011,07,30,05,08,13.10
2011,07,30,05,09,13.10
2011,07,30,05,10,13.10
2011,07,30,05,11,13.10
2011,07,30,05,12,13.10
2011,07,30,05,13,13.10
2011,07,30,05,14,13.10
2011,07,30,05,15,13.10
2011,07,30,05,16,13.10
2011,07,30,05,17,13.10
2011,07,30,05,18,13.10
2011,07,30,05,19,13.00
2011,07,30,05,20,13.00
2011,07,30,05,21,13.00
2011,07,30,05,22,13.00
2011,07,30,05,23,13.00
2011,07,30,05,24,13.00
2011,07,30,05,25,13.00
2011,07,30,05,26,13.00
2011,07,30,05,27,13.00
2011,07,30,05,28,13.00
2011,07,30,05,29,13.00
2011,07,30,05,30,13.00
2011,07,30,05,31,13.00
2011,07,30,05,32,13.00
2011,07,30,05,33,13.00
2011,07,30,05,34,13.00
2011,07,30,05,35,13.00
2011,07,30,05,36,13.00
2011,07,30,05,37,13.00
2011,07,30,05,38,13.00
2011,07,30,05,39,13.00
2011,07,30,05,40,13.00
2011,07,30,05,41,13.00
2011,07,30,05,42,13.00
2011,07,30,05,43,13.00
2011,07,30,05,44,12.90
2011,07,30,05,45,12.90
2011,07,30,05,46,12.90
2011,07,30,05,47,12.90
2011,07,30,05,48,12.90
2011,07,30,05,49,12.90
2011,07,30,05,50,12.90
2011,07,30,05,51,12.90
2011,07,30,05,52,12.90
2011,07,30,05,53,12.90
2011,07,30,05,54,12.90
2011,07,30,05,55,12.90
2011,07,30,05,56,12.90
2011,07,30,05,57,12.90
2011,07,30,05,58,12.90
2011,07,30,05,59,12.90
2011,07,30,06,00,12.90
2011,07,30,06,01,12.90
2011,07,30,06,02,12.90
2011,07,30,06,03,12.90
2011,07,30,06,04,12.90
2011,07,30,06,05,12.90
2011,07,30,06,06,12.90
2011,07,30,06,07,12.90
2011,07,30,06,08,12.90
2011,07,30,06,09,12.90
2011,07,30,06,10,12.90
2011,07,30,06,11,13.00
2011,07,30,06,12,13.00
2011,07,30,06,13,13.00
2011,07,30,06,14,13.10
2011,07,30,06,15,13.10
2011,07,30,06,16,13.10
2011,07,30,06,17,13.20
2011,07,30,06,18,13.20
2011,07,30,06,19,13.20
2011,07,30,06,20,13.20
2011,07,30,06,21,13.20
2011,07,30,06,22,13.30
2011,07,30,06,23,13.30
2011,07,30,06,24,13.30
2011,07,30,06,25,13.30
2011,07,30,06,26,13.30
2011,07,30,06,27,13.40
2011,07,30,06,28,13.40
2011,07,30,06,29,13.40
2011,07,30,06,30,13.40
2011,07,30,06,31,13.50
2011,07,30,06,32,13.50
2011,07,30,06,33,13.50
2011,07,30,06,34,13.60
2011,07,30,06,35,13.60
2011,07,30,06,36,13.60
2011,07,30,06,37,13.70
2011,07,30,06,38,13.70
2011,07,30,06,39,13.70
2011,07,30,06,40,13.70
2011,07,30,06,41,13.80
2011,07,30,06,42,13.80
2011,07,30,06,43,13.80
2011,07,30,06,44,13.80
2011,07,30,06,45,13.80
2011,07,30,06,46,13.80
2011,07,30,06,47,13.80
2011,07,30,06,48,13.90
2011,07,30,06,49,13.90
2011,07,30,06,50,13.90
2011,07,30,06,51,13.90
2011,07,30,06,52,14.00
2011,07,30,06,53,14.00
2011,07,30,06,54,14.10
2011,07,30,06,55,14.10
2011,07,30,06,56,14.20
2011,07,30,06,57,14.20
2011,07,30,06,58,14.30
2011,07,30,06,59,14.30
2011,07,30,07,00,14.40
2011,07,30,07,01,14.40
2011,07,30,07,02,14.50
2011,07,30,07,03,14.60
2011,07,30,07,04,14.70
2011,07,30,07,05,14.80
2011,07,30,07,06,14.90
2011,07,30,07,07,15.00
2011,07,30,07,08,15.00
2011,07,30,07,09,15.10
2011,07,30,07,10,15.20
2011,07,30,07,11,15.30
2011,07,30,07,12,15.40
2011,07,30,07,13,15.50
2011,07,30,07,14,15.60
2011,07,30,07,15,15.80
2011,07,30,07,16,15.90
2011,07,30,07,17,16.00
2011,07,30,07,18,16.10
2011,07,30,07,19,16.20
2011,07,30,07,20,16.30
2011,07,30,07,21,16.30
2011,07,30,07,22,16.40
2011,07,30,07,23,16.50
2011,07,30,07,24,16.60
2011,07,30,07,25,16.70
2011,07,30,07,26,16.80
2011,07,30,07,27,16.90
2011,07,30,07,28,17.00
2011,07,30,07,29,17.10
2011,07,30,07,30,17.20
2011,07,30,07,31,17.30
2011,07,30,07,32,17.30
2011,07,30,07,33,17.40
2011,07,30,07,34,17.40
2011,07,30,07,35,17.50
2011,07,30,07,36,17.50
2011,07,30,07,37,17.60
2011,07,30,07,38,17.60
2011,07,30,07,39,17.60
2011,07,30,07,40,17.70
2011,07,30,07,41,17.70
2011,07,30,07,42,17.70
2011,07,30,07,43,17.70
2011,07,30,07,44,17.70
2011,07,30,07,45,17.70
2011,07,30,07,46,17.70
2011,07,30,07,47,17.70
2011,07,30,07,48,17.80
2011,07,30,07,49,17.80
2011,07,30,07,50,17.80
2011,07,30,07,51,17.90
2011,07,30,07,52,17.90
2011,07,30,07,53,18.00
2011,07,30,07,54,18.00
2011,07,30,07,55,18.00
2011,07,30,07,56,18.00
2011,07,30,07,57,18.10
2011,07,30,07,58,18.10
2011,07,30,07,59,18.10
2011,07,30,08,00,18.10
2011,07,30,08,01,18.10
2011,07,30,08,02,18.10
2011,07,30,08,03,18.10
2011,07,30,08,04,18.10
2011,07,30,08,05,18.10
2011,07,30,08,06,18.10
2011,07,30,08,07,18.10
2011,07,30,08,08,18.10
2011,07,30,08,09,18.10
2011,07,30,08,10,18.10
2011,07,30,08,11,18.10
2011,07,30,08,12,18.10
2011,07,30,08,13,18.10
2011,07,30,08,14,18.20
2011,07,30,08,15,18.20
2011,07,30,08,16,18.30
2011,07,30,08,17,18.30
2011,07,30,08,18,18.30
2011,07,30,08,19,18.30
2011,07,30,08,20,18.30
2011,07,30,08,21,18.20
2011,07,30,08,22,18.20
2011,07,30,08,23,18.30
2011,07,30,08,24,18.20
2011,07,30,08,25,18.30
2011,07,30,08,26,18.30
2011,07,30,08,27,18.30
2011,07,30,08,28,18.30
2011,07,30,08,29,18.30
2011,07,30,08,30,18.30
2011,07,30,08,31,18.30
2011,07,30,08,32,18.40
2011,07,30,08,33,18.50
2011,07,30,08,34,18.50
2011,07,30,08,35,18.60
2011,07,30,08,36,18.60
2011,07,30,08,37,18.70
2011,07,30,08,38,18.70
2011,07,30,08,39,18.70
2011,07,30,08,40,18.70
2011,07,30,08,41,18.80
2011,07,30,08,42,18.80
2011,07,30,08,43,18.80
2011,07,30,08,44,18.80
2011,07,30,08,45,18.80
2011,07,30,08,46,18.90
2011,07,30,08,47,18.90
2011,07,30,08,48,18.90
2011,07,30,08,49,18.90
2011,07,30,08,50,18.90
2011,07,30,08,51,19.00
2011,07,30,08,52,19.10
2011,07,30,08,53,19.20
2011,07,30,08,54,19.30
2011,07,30,08,55,19.30
2011,07,30,08,56,19.40
2011,07,30,08,57,19.40
2011,07,30,08,58,19.40
2011,07,30,08,59,19.40
2011,07,30,09,00,19.50
2011,07,30,09,01,19.60
2011,07,30,09,02,19.60
2011,07,30,09,03,19.60
2011,07,30,09,04,19.60
2011,07,30,09,05,19.60
2011,07,30,09,06,19.70
2011,07,30,09,07,19.70
2011,07,30,09,08,19.70
2011,07,30,09,09,19.70
2011,07,30,09,10,19.70
2011,07,30,09,11,19.70
2011,07,30,09,12,19.70
2011,07,30,09,13,19.80
2011,07,30,09,14,19.80
2011,07,30,09,15,19.80
2011,07,30,09,16,19.90
2011,07,30,09,17,19.90
2011,07,30,09,18,20.00
2011,07,30,09,19,20.00
2011,07,30,09,20,20.00
2011,07,30,09,21,20.00
2011,07,30,09,22,20.00
2011,07,30,09,23,19.90
2011,07,30,09,24,19.90
2011,07,30,09,25,19.80
2011,07,30,09,26,19.80
2011,07,30,09,27,19.70
2011,07,30,09,28,19.70
2011,07,30,09,29,19.70
2011,07,30,09,30,19.80
2011,07,30,09,31,19.90
2011,07,30,09,32,20.00
2011,07,30,09,33,20.00
2011,07,30,09,34,20.00
2011,07,30,09,35,20.00
2011,07,30,09,36,20.00
2011,07,30,09,37,20.10
2011,07,30,09,38,20.10
2011,07,30,09,39,20.10
2011,07,30,09,40,20.10
2011,07,30,09,41,20.10
2011,07,30,09,42,20.10
2011,07,30,09,43,20.10
2011,07,30,09,44,20.20
2011,07,30,09,45,20.30
2011,07,30,09,46,20.30
2011,07,30,09,47,20.40
2011,07,30,09,48,20.40
2011,07,30,09,49,20.40
2011,07,30,09,50,20.40
2011,07,30,09,51,20.50
2011,07,30,09,52,20.60
2011,07,30,09,53,20.60
2011,07,30,09,54,20.70
2011,07,30,09,55,20.70
2011,07,30,09,56,20.70
2011,07,30,09,57,20.70
2011,07,30,09,58,20.70
2011,07,30,09,59,20.70
2011,07,30,10,00,20.60
2011,07,30,10,01,20.60
2011,07,30,10,02,20.50
2011,07,30,10,03,20.50
2011,07,30,10,04,20.60
2011,07,30,10,05,20.60
2011,07,30,10,06,20.70
2011,07,30,10,07,20.80
2011,07,30,10,08,20.80
2011,07,30,10,09,20.90
2011,07,30,10,10,20.90
2011,07,30,10,11,20.90
2011,07,30,10,12,20.80
2011,07,30,10,13,20.80
2011,07,30,10,14,20.80
2011,07,30,10,15,20.80
2011,07,30,10,16,20.70
2011,07,30,10,17,20.70
2011,07,30,10,18,20.60
2011,07,30,10,19,20.60
2011,07,30,10,20,20.50
2011,07,30,10,21,20.50
2011,07,30,10,22,20.60
2011,07,30,10,23,20.60
2011,07,30,10,24,20.60
2011,07,30,10,25,20.60
2011,07,30,10,26,20.70
2011,07,30,10,27,20.70
2011,07,30,10,28,20.70
2011,07,30,10,29,20.70
2011,07,30,10,30,20.70
2011,07,30,10,31,20.70
2011,07,30,10,32,20.60
2011,07,30,10,33,20.60
2011,07,30,10,34,20.60
2011,07,30,10,35,20.60
2011,07,30,10,36,20.60
2011,07,30,10,37,20.60
2011,07,30,10,38,20.70
2011,07,30,10,39,20.70
2011,07,30,10,40,20.70
2011,07,30,10,41,20.80
2011,07,30,10,42,20.80
2011,07,30,10,43,20.90
2011,07,30,10,44,21.00
2011,07,30,10,45,21.10
2011,07,30,10,46,21.10
2011,07,30,10,47,21.00
2011,07,30,10,48,20.90
2011,07,30,10,49,20.90
2011,07,30,10,50,20.80
2011,07,30,10,51,20.80
2011,07,30,10,52,20.70
2011,07,30,10,53,20.70
2011,07,30,10,54,20.60
2011,07,30,10,55,20.60
2011,07,30,10,56,20.60
2011,07,30,10,57,20.60
2011,07,30,10,58,20.60
2011,07,30,10,59,20.70
2011,07,30,11,00,20.70
2011,07,30,11,01,20.80
2011,07,30,11,02,20.80
2011,07,30,11,03,20.90
2011,07,30,11,04,20.90
2011,07,30,11,05,20.90
2011,07,30,11,06,20.90
2011,07,30,11,07,20.90
2011,07,30,11,08,21.00
2011,07,30,11,09,21.10
2011,07,30,11,10,21.00
2011,07,30,11,11,21.00
2011,07,30,11,12,21.00
2011,07,30,11,13,21.00
2011,07,30,11,14,21.10
2011,07,30,11,15,21.10
2011,07,30,11,16,21.10
2011,07,30,11,17,21.00
2011,07,30,11,18,21.00
2011,07,30,11,19,20.90
2011,07,30,11,20,21.00
2011,07,30,11,21,21.00
2011,07,30,11,22,20.90
2011,07,30,11,23,21.00
2011,07,30,11,24,21.10
2011,07,30,11,25,21.00
2011,07,30,11,26,21.00
2011,07,30,11,27,21.00
2011,07,30,11,28,21.10
2011,07,30,11,29,21.10
2011,07,30,11,30,21.10
2011,07,30,11,31,21.10
2011,07,30,11,32,21.20
2011,07,30,11,33,21.20
2011,07,30,11,34,21.30
2011,07,30,11,35,21.30
2011,07,30,11,36,21.30
2011,07,30,11,37,21.30
2011,07,30,11,38,21.30
2011,07,30,11,39,21.20
2011,07,30,11,40,21.20
2011,07,30,11,41,21.20
2011,07,30,11,42,21.30
2011,07,30,11,43,21.30
2011,07,30,11,44,21.30
2011,07,30,11,45,21.30
2011,07,30,11,46,21.40
2011,07,30,11,47,21.40
2011,07,30,11,48,21.40
2011,07,30,11,49,21.40
2011,07,30,11,50,21.40
2011,07,30,11,51,21.40
2011,07,30,11,52,21.40
2011,07,30,11,53,21.40
2011,07,30,11,54,21.40
2011,07,30,11,55,21.40
2011,07,30,11,56,21.50
2011,07,30,11,57,21.50
2011,07,30,11,58,21.50
2011,07,30,11,59,21.60
2011,07,30,12,00,21.70
2011,07,30,12,01,21.70
2011,07,30,12,02,21.70
2011,07,30,12,03,21.70
2011,07,30,12,04,21.80
2011,07,30,12,05,21.80
2011,07,30,12,06,21.80
2011,07,30,12,07,21.80
2011,07,30,12,08,21.90
2011,07,30,12,09,21.80
2011,07,30,12,10,21.70
2011,07,30,12,11,21.60
2011,07,30,12,12,21.60
2011,07,30,12,13,21.60
2011,07,30,12,14,21.70
2011,07,30,12,15,21.60
2011,07,30,12,16,21.60
2011,07,30,12,17,21.60
2011,07,30,12,18,21.60
2011,07,30,12,19,21.70
2011,07,30,12,20,21.80
2011,07,30,12,21,21.80
2011,07,30,12,22,21.90
2011,07,30,12,23,22.00
2011,07,30,12,24,22.10
2011,07,30,12,25,22.20
2011,07,30,12,26,22.20
2011,07,30,12,27,22.20
2011,07,30,12,28,22.30
2011,07,30,12,29,22.30
2011,07,30,12,30,22.30
2011,07,30,12,31,22.40
2011,07,30,12,32,22.40
2011,07,30,12,33,22.40
2011,07,30,12,34,22.50
2011,07,30,12,35,22.50
2011,07,30,12,36,22.50
2011,07,30,12,37,22.50
2011,07,30,12,38,22.50
2011,07,30,12,39,22.40
2011,07,30,12,40,22.30
2011,07,30,12,41,22.50
2011,07,30,12,42,22.50
2011,07,30,12,43,22.70
2011,07,30,12,44,22.90
2011,07,30,12,45,23.00
2011,07,30,12,46,23.10
2011,07,30,12,47,23.10
2011,07,30,12,48,23.00
2011,07,30,12,49,22.90
2011,07,30,12,50,22.70
2011,07,30,12,51,22.70
2011,07,30,12,52,22.70
2011,07,30,12,53,22.70
2011,07,30,12,54,22.80
2011,07,30,12,55,22.80
2011,07,30,12,56,22.90
2011,07,30,12,57,22.80
2011,07,30,12,58,22.80
2011,07,30,12,59,22.90
2011,07,30,13,00,23.10
2011,07,30,13,01,23.20
2011,07,30,13,02,23.20
2011,07,30,13,03,23.10
2011,07,30,13,04,23.00
2011,07,30,13,05,22.90
2011,07,30,13,06,22.80
2011,07,30,13,07,22.70
2011,07,30,13,08,22.60
2011,07,30,13,09,22.60
2011,07,30,13,10,22.50
2011,07,30,13,11,22.40
2011,07,30,13,12,22.50
2011,07,30,13,13,22.60
2011,07,30,13,14,22.60
2011,07,30,13,15,22.70
2011,07,30,13,16,22.70
2011,07,30,13,17,22.80
2011,07,30,13,18,22.90
2011,07,30,13,19,23.10
2011,07,30,13,20,23.10
2011,07,30,13,21,23.20
2011,07,30,13,22,23.10
2011,07,30,13,23,23.00
2011,07,30,13,24,23.00
2011,07,30,13,25,22.90
2011,07,30,13,26,23.00
2011,07,30,13,27,22.90
2011,07,30,13,28,22.90
2011,07,30,13,29,22.80
2011,07,30,13,30,22.80
2011,07,30,13,31,22.80
2011,07,30,13,32,22.80
2011,07,30,13,33,22.70
2011,07,30,13,34,22.60
2011,07,30,13,35,22.60
2011,07,30,13,36,22.50
2011,07,30,13,37,22.50
2011,07,30,13,38,22.60
2011,07,30,13,39,22.60
2011,07,30,13,40,22.60
2011,07,30,13,41,22.70
2011,07,30,13,42,22.70
2011,07,30,13,43,22.70
2011,07,30,13,44,22.70
2011,07,30,13,45,22.60
2011,07,30,13,46,22.50
2011,07,30,13,47,22.50
2011,07,30,13,48,22.40
2011,07,30,13,49,22.30
2011,07,30,13,50,22.30
2011,07,30,13,51,22.30
2011,07,30,13,52,22.30
2011,07,30,13,53,22.30
2011,07,30,13,54,22.30
2011,07,30,13,55,22.30
2011,07,30,13,56,22.20
2011,07,30,13,57,22.20
2011,07,30,13,58,22.20
2011,07,30,13,59,22.20
2011,07,30,14,00,22.20
2011,07,30,14,01,22.30
2011,07,30,14,02,22.40
2011,07,30,14,03,22.40
2011,07,30,14,04,22.40
2011,07,30,14,05,22.30
2011,07,30,14,06,22.20
2011,07,30,14,07,22.30
2011,07,30,14,08,22.30
2011,07,30,14,09,22.30
2011,07,30,14,10,22.40
2011,07,30,14,11,22.40
2011,07,30,14,12,22.50
2011,07,30,14,13,22.50
2011,07,30,14,14,22.40
2011,07,30,14,15,22.30
2011,07,30,14,16,22.30
2011,07,30,14,17,22.30
2011,07,30,14,18,22.30
2011,07,30,14,19,22.30
2011,07,30,14,20,22.20
2011,07,30,14,21,22.20
2011,07,30,14,22,22.30
2011,07,30,14,23,22.30
2011,07,30,14,24,22.30
2011,07,30,14,25,22.20
2011,07,30,14,26,22.20
2011,07,30,14,27,22.10
2011,07,30,14,28,22.10
2011,07,30,14,29,22.10
2011,07,30,14,30,22.10
2011,07,30,14,31,22.00
2011,07,30,14,32,22.00
2011,07,30,14,33,22.00
2011,07,30,14,34,22.00
2011,07,30,14,35,22.00
2011,07,30,14,36,22.00
2011,07,30,14,37,22.10
2011,07,30,14,38,22.10
2011,07,30,14,39,22.20
2011,07,30,14,40,22.30
2011,07,30,14,41,22.40
2011,07,30,14,42,22.50
2011,07,30,14,43,22.60
2011,07,30,14,44,22.70
2011,07,30,14,45,22.70
2011,07,30,14,46,22.80
2011,07,30,14,47,22.90
2011,07,30,14,48,22.90
2011,07,30,14,49,22.90
2011,07,30,14,50,22.80
2011,07,30,14,51,22.80
2011,07,30,14,52,22.80
2011,07,30,14,53,22.70
2011,07,30,14,54,22.70
2011,07,30,14,55,22.70
2011,07,30,14,56,22.70
2011,07,30,14,57,22.70
2011,07,30,14,58,22.70
2011,07,30,14,59,22.70
2011,07,30,15,00,22.70
2011,07,30,15,01,22.70
2011,07,30,15,02,22.70
2011,07,30,15,03,22.80
2011,07,30,15,04,22.80
2011,07,30,15,05,22.80
2011,07,30,15,06,22.70
2011,07,30,15,07,22.80
2011,07,30,15,08,22.80
2011,07,30,15,09,22.80
2011,07,30,15,10,22.80
2011,07,30,15,11,22.80
2011,07,30,15,12,22.80
2011,07,30,15,13,22.80
2011,07,30,15,14,22.70
2011,07,30,15,15,22.70
2011,07,30,15,16,22.70
2011,07,30,15,17,22.70
2011,07,30,15,18,22.70
2011,07,30,15,19,22.70
2011,07,30,15,20,22.70
2011,07,30,15,21,22.70
2011,07,30,15,22,22.70
2011,07,30,15,23,22.70
2011,07,30,15,24,22.70
2011,07,30,15,25,22.60
2011,07,30,15,26,22.60
2011,07,30,15,27,22.50
2011,07,30,15,28,22.50
2011,07,30,15,29,22.40
2011,07,30,15,30,22.40
2011,07,30,15,31,22.40
2011,07,30,15,32,22.50
2011,07,30,15,33,22.60
2011,07,30,15,34,22.60
2011,07,30,15,35,22.60
2011,07,30,15,36,22.60
2011,07,30,15,37,22.60
2011,07,30,15,38,22.70
2011,07,30,15,39,22.70
2011,07,30,15,40,22.80
2011,07,30,15,41,22.70
2011,07,30,15,42,22.70
2011,07,30,15,43,22.80
2011,07,30,15,44,22.80
2011,07,30,15,45,22.80
2011,07,30,15,46,22.80
2011,07,30,15,47,22.90
2011,07,30,15,48,22.90
2011,07,30,15,49,22.90
2011,07,30,15,50,22.90
2011,07,30,15,51,22.90
2011,07,30,15,52,23.00
2011,07,30,15,53,23.10
2011,07,30,15,54,23.10
2011,07,30,15,55,23.10
2011,07,30,15,56,23.10
2011,07,30,15,57,23.10
2011,07,30,15,58,23.20
2011,07,30,15,59,23.20
2011,07,30,16,00,23.30
2011,07,30,16,01,23.20
2011,07,30,16,02,23.20
2011,07,30,16,03,23.20
2011,07,30,16,04,23.20
2011,07,30,16,05,23.20
2011,07,30,16,06,23.20
2011,07,30,16,07,23.20
2011,07,30,16,08,23.20
2011,07,30,16,09,23.20
2011,07,30,16,10,23.20
2011,07,30,16,11,23.20
2011,07,30,16,12,23.20
2011,07,30,16,13,23.20
2011,07,30,16,14,23.30
2011,07,30,16,15,23.30
2011,07,30,16,16,23.30
2011,07,30,16,17,23.30
2011,07,30,16,18,23.30
2011,07,30,16,19,23.30
2011,07,30,16,20,23.30
2011,07,30,16,21,23.20
2011,07,30,16,22,23.10
2011,07,30,16,23,23.10
2011,07,30,16,24,22.90
2011,07,30,16,25,22.80
2011,07,30,16,26,22.80
2011,07,30,16,27,22.80
2011,07,30,16,28,22.80
2011,07,30,16,29,22.80
2011,07,30,16,30,22.70
2011,07,30,16,31,22.70
2011,07,30,16,32,22.70
2011,07,30,16,33,22.70
2011,07,30,16,34,22.70
2011,07,30,16,35,22.70
2011,07,30,16,36,22.70
2011,07,30,16,37,22.70
2011,07,30,16,38,22.70
2011,07,30,16,39,22.70
2011,07,30,16,40,22.70
2011,07,30,16,41,22.70
2011,07,30,16,42,22.70
2011,07,30,16,43,22.60
2011,07,30,16,44,22.60
2011,07,30,16,45,22.60
2011,07,30,16,46,22.50
2011,07,30,16,47,22.40
2011,07,30,16,48,22.40
2011,07,30,16,49,22.30
2011,07,30,16,50,22.30
2011,07,30,16,51,22.30
2011,07,30,16,52,22.30
2011,07,30,16,53,22.30
2011,07,30,16,54,22.30
2011,07,30,16,55,22.20
2011,07,30,16,56,22.20
2011,07,30,16,57,22.20
2011,07,30,16,58,22.20
2011,07,30,16,59,22.10
2011,07,30,17,00,22.10
2011,07,30,17,01,22.10
2011,07,30,17,02,22.00
2011,07,30,17,03,22.00
2011,07,30,17,04,22.00
2011,07,30,17,05,22.00
2011,07,30,17,06,22.10
2011,07,30,17,07,22.10
2011,07,30,17,08,22.10
2011,07,30,17,09,22.10
2011,07,30,17,10,22.10
2011,07,30,17,11,22.10
2011,07,30,17,12,22.10
2011,07,30,17,13,22.00
2011,07,30,17,14,22.00
2011,07,30,17,15,21.90
2011,07,30,17,16,21.90
2011,07,30,17,17,21.80
2011,07,30,17,18,21.80
2011,07,30,17,19,21.80